FYT41AS LEPA-LIRF

Flight info

Callsign FYT41AS
Flight time N/A
Altitude 38000
Route MORSS DCT BAVON DCT ORKUM DCT ELSAG DCT ALG DCT ROMPO DCT RUXOP DCT BATOX DCT TINTO L5 VALMA
Aircraft A320/M-SDFGHIRWY/S

Departure

Time N/A
Airport Palma de Mallorca Airport (LEPA)

Arrival

Time 2026-05-07 17:59
Airport Rome–Fiumicino Leonardo da Vinci International Airport (LIRF)
Time Latitude Longitude Altitude Speed Heading
2026-05-07 17:41 41.63336 11.61091 17487 ft 356 kts 91°
2026-05-07 17:42 41.63298 11.64351 17271 ft 347 kts 94°
2026-05-07 17:42 41.63227 11.67601 16628 ft 353 kts 93°
2026-05-07 17:42 41.63198 11.70883 16031 ft 356 kts 92°
2026-05-07 17:42 41.63211 11.74163 15631 ft 353 kts 91°
2026-05-07 17:43 41.63250 11.77389 15237 ft 350 kts 90°
2026-05-07 17:43 41.63302 11.80605 14928 ft 334 kts 90°
2026-05-07 17:43 41.63353 11.83588 14628 ft 316 kts 90°
2026-05-07 17:43 41.63403 11.86451 14318 ft 300 kts 90°
2026-05-07 17:44 41.63449 11.89179 13849 ft 291 kts 90°
2026-05-07 17:44 41.63251 11.91821 13246 ft 285 kts 113°
2026-05-07 17:44 41.62158 11.93886 12626 ft 276 kts 146°
2026-05-07 17:44 41.60437 11.94900 12039 ft 269 kts 166°
2026-05-07 17:45 41.58658 11.95542 11439 ft 267 kts 165°
2026-05-07 17:45 41.56884 11.96240 10874 ft 267 kts 163°
2026-05-07 17:45 41.55122 11.96971 10520 ft 265 kts 163°
2026-05-07 17:45 41.53357 11.97726 10194 ft 263 kts 162°
2026-05-07 17:46 41.51638 11.98470 9870 ft 261 kts 162°
2026-05-07 17:46 41.49915 11.99221 9536 ft 260 kts 162°
2026-05-07 17:46 41.48216 11.99963 9227 ft 258 kts 161°
2026-05-07 17:46 41.46508 12.00710 8884 ft 257 kts 161°
2026-05-07 17:47 41.44821 12.01447 8561 ft 256 kts 161°
2026-05-07 17:47 41.43128 12.02188 8227 ft 255 kts 161°
2026-05-07 17:47 41.41466 12.02977 7939 ft 252 kts 152°
2026-05-07 17:47 41.40237 12.04495 7731 ft 244 kts 117°
2026-05-07 17:48 41.39862 12.06639 7529 ft 242 kts 86°
2026-05-07 17:48 41.40264 12.08808 7293 ft 242 kts 72°
2026-05-07 17:48 41.40808 12.10937 7047 ft 241 kts 72°
2026-05-07 17:48 41.41330 12.13046 6802 ft 240 kts 73°
2026-05-07 17:49 41.41837 12.15152 6543 ft 238 kts 73°
2026-05-07 17:49 41.42335 12.17250 6294 ft 236 kts 73°
2026-05-07 17:49 41.42798 12.19350 6046 ft 235 kts 81°
2026-05-07 17:49 41.42626 12.21463 5783 ft 235 kts 116°
2026-05-07 17:50 41.41565 12.23086 5536 ft 236 kts 148°
2026-05-07 17:50 41.40025 12.23874 5293 ft 237 kts 161°
2026-05-07 17:50 41.38603 12.24847 5037 ft 233 kts 131°
2026-05-07 17:50 41.37953 12.26787 4999 ft 232 kts 90°
2026-05-07 17:51 41.38389 12.28815 5006 ft 233 kts 57°
2026-05-07 17:51 41.39488 12.30370 4906 ft 234 kts 36°
2026-05-07 17:51 41.40940 12.31304 4771 ft 235 kts 14°
2026-05-07 17:51 41.42569 12.31508 4655 ft 236 kts
2026-05-07 17:52 41.44213 12.31567 4536 ft 235 kts
2026-05-07 17:52 41.45855 12.31669 4407 ft 235 kts
2026-05-07 17:52 41.47471 12.31809 4277 ft 234 kts
2026-05-07 17:52 41.49091 12.31973 4155 ft 233 kts
2026-05-07 17:53 41.50680 12.32303 4030 ft 232 kts 12°
2026-05-07 17:53 41.52259 12.32735 3897 ft 231 kts 13°
2026-05-07 17:53 41.53841 12.33173 3775 ft 231 kts 12°
2026-05-07 17:53 41.55410 12.33590 3644 ft 230 kts 12°
2026-05-07 17:54 41.56991 12.34000 3525 ft 229 kts 12°
2026-05-07 17:54 41.58547 12.34398 3509 ft 229 kts 11°
2026-05-07 17:54 41.60118 12.34797 3501 ft 227 kts 11°
2026-05-07 17:54 41.61636 12.35178 3499 ft 220 kts
2026-05-07 17:55 41.63163 12.35152 3486 ft 221 kts 349°
2026-05-07 17:55 41.64637 12.34615 3324 ft 221 kts 343°
2026-05-07 17:55 41.66104 12.33946 3037 ft 222 kts 341°
2026-05-07 17:55 41.67550 12.33290 2751 ft 221 kts 342°
2026-05-07 17:56 41.68991 12.32667 2454 ft 213 kts 343°
2026-05-07 17:56 41.70385 12.32082 2172 ft 204 kts 343°
2026-05-07 17:56 41.71702 12.31536 1952 ft 191 kts 343°
2026-05-07 17:56 41.72920 12.31029 1735 ft 175 kts 343°
2026-05-07 17:57 41.74033 12.30566 1480 ft 164 kts 342°
2026-05-07 17:57 41.74748 12.30268 1344 ft 155 kts 342°
2026-05-07 17:57 41.76063 12.29720 1053 ft 142 kts 341°
2026-05-07 17:57 41.77008 12.29325 850 ft 141 kts 341°
2026-05-07 17:58 41.77945 12.28922 695 ft 141 kts 341°
2026-05-07 17:58 41.78884 12.28533 524 ft 140 kts 341°
2026-05-07 17:58 41.79807 12.28153 360 ft 140 kts 341°
2026-05-07 17:58 41.80740 12.27763 168 ft 139 kts 340°
2026-05-07 17:59 41.81667 12.27378 26 ft 137 kts 339°
2026-05-07 17:59 41.82453 12.27042 25 ft 96 kts 343°
2026-05-07 17:59 41.82906 12.26849 25 ft 49 kts 337°
2026-05-07 17:59 41.83129 12.26662 25 ft 30 kts 314°
2026-05-07 18:00 41.83230 12.26515 25 ft 15 kts 297°
2026-05-07 18:00 41.83189 12.26413 25 ft 15 kts 175°
2026-05-07 18:00 41.83083 12.26461 25 ft 16 kts 162°
2026-05-07 18:00 41.82967 12.26508 25 ft 17 kts 162°
2026-05-07 18:01 41.82845 12.26557 24 ft 19 kts 163°
2026-05-07 18:01 41.82716 12.26612 24 ft 20 kts 161°
2026-05-07 18:01 41.82580 12.26670 24 ft 20 kts 162°
2026-05-07 18:01 41.82439 12.26730 24 ft 21 kts 162°
2026-05-07 18:02 41.82144 12.26854 24 ft 22 kts 162°
2026-05-07 18:02 41.81992 12.26917 24 ft 23 kts 162°
2026-05-07 18:02 41.81834 12.26984 24 ft 23 kts 162°
2026-05-07 18:03 41.81675 12.27050 24 ft 24 kts 162°
2026-05-07 18:03 41.81512 12.27118 24 ft 24 kts 162°
2026-05-07 18:03 41.81348 12.27187 24 ft 24 kts 162°
2026-05-07 18:03 41.81183 12.27257 24 ft 24 kts 163°
2026-05-07 18:04 41.81020 12.27323 24 ft 24 kts 162°
2026-05-07 18:04 41.80857 12.27342 24 ft 23 kts 189°
2026-05-07 18:04 41.80697 12.27288 24 ft 23 kts 214°
2026-05-07 18:04 41.80621 12.27104 24 ft 22 kts 250°
2026-05-07 18:05 41.80566 12.26905 24 ft 22 kts 250°
2026-05-07 18:05 41.80515 12.26713 24 ft 21 kts 249°
2026-05-07 18:05 41.80464 12.26535 24 ft 19 kts 249°
2026-05-07 18:05 41.80416 12.26399 24 ft 13 kts 221°
2026-05-07 18:06 41.80326 12.26384 24 ft 13 kts 161°
2026-05-07 18:06 41.80237 12.26408 24 ft 13 kts 184°
2026-05-07 18:06 41.80152 12.26368 24 ft 12 kts 206°
2026-05-07 18:06 41.80122 12.26276 24 ft 9 kts 286°
2026-05-07 18:07 41.80112 12.26237 24 ft 4 kts 210°
2026-05-07 18:07 41.80085 12.26221 24 ft 4 kts 204°
2026-05-07 18:07 41.80068 12.26211 24 ft 0 kts 204°